This demonstration page uses our WeatherBlox Daily Observations layout. Learn more.

Left ArrowRight Arrow

Hourly Observations for March 20, 2021

Temp ( °F °C ) Dew Point ( °F °C ) Humidity (%) Winds ( mph kmh ) Pressure ( in mb ) Visibility ( mi km ) Precip ( " mm )
12:51 am 00:51 Clear 53 11.7 16 -8.9 23 23 SE 6 9 30 1016 10 16.0934 0 0
1:51 am 01:51 Clear 51 10.6 17 -8.3 26 26 NE 5 7 29.99 1016 10 16.0934 0 0
2:51 am 02:51 Clear 47 8.3 18 -7.8 31 31 NNW 5 7 29.99 1016 10 16.0934 0 0
3:51 am 03:51 Clear 50 10 19 -7.2 29 29 NW 5 7 30 1016 10 16.0934 0 0
4:51 am 04:51 Clear 47 8.3 19 -7.2 33 33 ESE 3 6 30.01 1016 10 16.0934 0 0
5:51 am 05:51 Clear 44 6.7 19 -7.2 37 37 Calm 30.03 1017 10 16.0934 0 0
6:51 am 06:51 Sunny 45 7.2 20 -6.7 37 37 E 3 6 30.04 1017 10 16.0934 0 0
7:51 am 07:51 Sunny 53 11.7 20 -6.7 27 27 Calm 30.06 1018 10 16.0934 0 0
8:51 am 08:51 Sunny 63 17.2 22 -5.6 21 21 SE 10 17 30.04 1017 10 16.0934 0 0
9:51 am 09:51 Sunny 68 20 20 -6.7 16 16 SE 12 19 30.04 1017 10 16.0934 0 0
10:51 am 10:51 Sunny 71 21.7 19 -7.2 14 14 VRB 5 7 30.02 1017 10 16.0934 0 0
11:51 am 11:51 Sunny 76 24.4 19 -7.2 12 12 Calm 29.99 1016 10 16.0934 0 0
12:51 pm 12:51 Sunny 77 25 19 -7.2 11 11 SW 5 7 29.96 1015 10 16.0934 0 0
1:51 pm 13:51 Sunny 80 26.7 22 -5.6 11 11 VRB 5 7 29.92 1013 10 16.0934 0 0
2:51 pm 14:51 Sunny 83 28.3 25 -3.9 12 12 W 12 19 29.89 1012 10 16.0934 0 0
3:51 pm 15:51 Sunny 81 27.2 27 -2.8 14 14 NNW 17 28 29.87 1011 10 16.0934 0 0
4:51 pm 16:51 Sunny 81 27.2 27 -2.8 14 14 NW 16 26 29.85 1011 10 16.0934 0 0
5:51 pm 17:51 Sunny 79 26.1 26 -3.3 14 14 WNW 22 35 29.85 1011 10 16.0934 0 0
6:51 pm 18:51 Clear 74 23.3 27 -2.8 17 17 WNW 15 24 29.86 1011 10 16.0934 0 0
7:51 pm 19:51 Clear 71 21.7 28 -2.2 20 20 NW 17 28 29.86 1011 10 16.0934 0 0
8:51 pm 20:51 Clear 68 20 28 -2.2 22 22 NNW 13 20 29.87 1011 10 16.0934 0 0
9:51 pm 21:51 Clear 66 18.9 29 -1.7 25 25 NNW 9 15 29.87 1011 10 16.0934 0 0
10:51 pm 22:51 Clear 63 17.2 29 -1.7 28 28 NW 12 19 29.86 1011 10 16.0934 0 0
11:51 pm 23:51 Clear 65 18.3 30 -1.1 27 27 NW 9 15 29.85 1011 10 16.0934 0 0

Powered by AerisWeather